sat.trackr.live / text

‹ back to catalog

MATS

NORAD 54227 · 2022-147A

PAYLOAD ACTIVE UNKNOWN

§ Identity

Operator
Country
SWED
Launch date
2022-11-04
Launch site
RLLB
Launch vehicle
Mass (kg)
RCS (m²)

External: N2YO · Heavens-Above · Gunter

§ Orbital elements

Epoch: 2026-05-24T23:34:25.078080Z

Period
95.67 min
Inclination
97.6823°
Eccentricity
0.0010540
Mean motion
15.05186780 rev/d
Perigee alt
543.6 km
Apogee alt
558.2 km
Semi-major
6,929.1 km
B*
1.6380e-4
RAAN
146.6834°
Arg perigee
280.3938°
Mean anomaly
79.6100°
Rev number
19,427

§ Raw data

MATS1 54227U 22147A   26144.98223470  .00002275  00000+0  16380-3 0  99942 54227  97.6823 146.6834 0010540 280.3938  79.6100 15.05186780194279

JSON: /api/v1/satellites/54227 · /tle

For live sub-satellite position, see the globe view (requires WebGL).

§ Visibility from observer

Set your observer location to see the next 7 days of passes ≥ 10°. The values pass through the URL so the page stays shareable.

No JS? Fill the form by hand. The geolocation button needs JavaScript.

§ Radio — SatNOGS DB

ModeDescriptionDownlinkUplink
OQPSK S-Band OQPSK 2.214 GHz

1 transmitter · refreshed weekly from db.satnogs.org